STARLINK-1341 (45534 NORAD) Tracking and Keplerian Element Data

This shows tracking and keplerian element data for the satellite.

Feedback or suggestion? Click here.




ElementValue
Catalog45534
NameSTARLINK-1341
Epoch Orbit175
Epoch Day196.91667824
Epoch Year2020
RAAN11.2455
Inclination53.001
Eccentricity0.0001307
Argument of Perigee83.2821
Mean Anonmoly44.4667
Mean Motion15.05559268
Decay Rate0.00043633
L11 45534U 20025D 20196.91667824 .00043633 00000-0 29970-2 0 9999
L22 45534 53.0010 11.2455 0001307 83.2821 44.4667 15.05559268 1755

Live tracking and technical data element details for STARLINK-1341 (NORAD 45534). STARLINK-1341 can be tracked NOW for your location showing map with azimuth and elevation plus other details from your city location.

Track the satellite on the map from your city or location and see movement details for azimuth, elevation, latitude, longitude, range, height, and movement on the map or in text.







IsCatalogInMostPopularTable: catalog: 45534, numindb: 22
Update: records affected: 1



GetName: 45534 STARLINK-1341

Hit Count: updated at: Thu, 16 Jul 2020 04:09:51 GMT